The following orbital elements are taken from MPC 68392:
Epoch 2008 Aug. 2.0 TT = JDT 2454680.5
T 2008 Aug. 2.2016 TT MPC
q 5.531041 (2000.0) P Q
z +0.000258 Peri. 218.0922 +0.0581358 -0.3637801
+/-0.000005 Node 105.6750 -0.4980465 +0.7965079
e 0.998574 Incl. 105.0766 -0.8651993 -0.4829484
From 103 observations 2008 Mar. 5-2010 Jan. 14, mean residual 0".5.